TimeEDT,TemperatureF,Dew PointF,Humidity,Sea Level PressureIn,VisibilityMPH,Wind Direction,Wind SpeedMPH,Gust SpeedMPH,PrecipitationIn,Events,Conditions,WindDirDegrees,DateUTC
12:12 AM,51.8,48.2,88,29.96,3.0,South,4.6,-,0.01,Rain,Light Rain,170,2013-10-31 04:12:00
12:32 AM,51.8,50.0,94,29.95,2.5,SSE,4.6,-,0.02,Rain,Light Rain,150,2013-10-31 04:32:00
12:53 AM,52.0,51.1,97,29.95,2.0,SSE,4.6,-,0.05,Rain,Rain,160,2013-10-31 04:53:00
1:15 AM,53.6,51.8,94,29.91,1.8,SE,6.9,-,0.06,Rain,Heavy Rain,140,2013-10-31 05:15:00
1:31 AM,53.6,51.8,94,29.89,2.0,SSE,6.9,-,0.11,Rain,Rain,150,2013-10-31 05:31:00
1:53 AM,53.1,52.0,96,29.89,2.0,SSE,6.9,-,0.14,Rain,Light Rain,160,2013-10-31 05:53:00
2:18 AM,53.6,51.8,94,29.87,3.0,SSE,11.5,-,0.02,Rain,Light Rain,150,2013-10-31 06:18:00
2:37 AM,53.6,53.6,100,29.85,2.0,SE,8.1,-,0.05,Rain,Rain,140,2013-10-31 06:37:00
2:51 AM,53.6,53.6,100,29.84,3.0,SSE,6.9,-,0.06,Rain,Light Rain,160,2013-10-31 06:51:00
2:53 AM,54.0,53.1,97,29.85,4.0,SSE,5.8,-,0.06,Rain,Light Rain,160,2013-10-31 06:53:00
3:36 AM,55.4,53.6,94,29.81,2.5,SSE,8.1,-,0.04,Rain,Rain,160,2013-10-31 07:36:00
3:46 AM,55.4,55.4,100,29.80,4.0,South,8.1,-,0.05,Rain,Light Rain,180,2013-10-31 07:46:00
3:53 AM,55.9,55.0,97,29.79,5.0,South,10.4,-,0.05,Rain,Light Rain,170,2013-10-31 07:53:00
4:53 AM,57.9,57.0,97,29.75,4.0,South,9.2,-,0.10,Rain,Rain,180,2013-10-31 08:53:00
5:35 AM,60.8,57.2,88,29.74,5.0,South,13.8,18.4,0.04,Rain,Light Rain,190,2013-10-31 09:35:00
5:53 AM,61.0,59.0,93,29.74,6.0,SSW,12.7,23.0,0.04,Rain,Light Rain,210,2013-10-31 09:53:00
6:35 AM,60.8,59.0,94,29.74,5.0,SW,10.4,-,0.07,Rain,Light Rain,230,2013-10-31 10:35:00
6:53 AM,61.0,59.0,93,29.73,4.0,SSW,6.9,-,0.08,Rain,Light Rain,210,2013-10-31 10:53:00
7:53 AM,61.0,59.0,93,29.72,5.0,SSW,8.1,-,0.05,Rain,Light Rain,200,2013-10-31 11:53:00
8:38 AM,60.8,59.0,94,29.70,6.0,SSW,5.8,-,0.02,Rain,Light Rain,200,2013-10-31 12:38:00
8:53 AM,61.0,59.0,93,29.71,6.0,SSW,6.9,-,0.03,Rain,Light Rain,200,2013-10-31 12:53:00
9:12 AM,60.8,59.0,94,29.70,2.5,South,6.9,-,0.02,Rain,Rain,190,2013-10-31 13:12:00
9:36 AM,60.8,59.0,94,29.69,2.5,South,10.4,-,0.05,Rain,Light Rain,180,2013-10-31 13:36:00
9:50 AM,60.8,59.0,94,29.68,3.0,South,10.4,17.3,0.06,Rain,Light Rain,180,2013-10-31 13:50:00
9:53 AM,61.0,59.0,93,29.68,3.0,South,12.7,19.6,0.07,Rain,Light Rain,180,2013-10-31 13:53:00
10:11 AM,60.8,59.0,94,29.67,5.0,South,12.7,20.7,0.00,Rain,Light Rain,190,2013-10-31 14:11:00
10:53 AM,60.1,57.0,90,29.65,4.0,SSW,17.3,29.9,0.04,Rain,Light Rain,200,2013-10-31 14:53:00
11:38 AM,60.8,57.2,88,29.63,2.5,SSW,11.5,24.2,0.06,Rain,Rain,200,2013-10-31 15:38:00
11:51 AM,60.8,57.2,88,29.63,3.0,SSW,16.1,27.6,0.08,Rain,Light Rain,210,2013-10-31 15:51:00
11:53 AM,60.1,57.0,90,29.62,3.0,SSW,12.7,27.6,0.08,Rain,Light Rain,200,2013-10-31 15:53:00
12:53 PM,59.0,55.9,90,29.60,4.0,SSW,15.0,28.8,0.06,Rain,Light Rain,200,2013-10-31 16:53:00
1:53 PM,59.0,55.9,90,29.57,6.0,SSW,12.7,24.2,0.06,Rain,Light Rain,210,2013-10-31 17:53:00
2:31 PM,59.0,57.2,94,29.55,3.0,South,10.4,21.9,0.02,Rain,Light Rain,190,2013-10-31 18:31:00
2:43 PM,59.0,57.2,94,29.54,4.0,South,12.7,20.7,0.03,Rain,Light Rain,190,2013-10-31 18:43:00
2:48 PM,59.0,57.2,94,29.54,4.0,South,15.0,24.2,0.04,Rain,Light Rain,190,2013-10-31 18:48:00
2:53 PM,59.0,57.0,93,29.53,4.0,South,16.1,24.2,0.04,Rain,Light Rain,190,2013-10-31 18:53:00
2:59 PM,59.0,57.2,94,29.53,4.0,South,13.8,25.3,0.00,Rain,Light Rain,190,2013-10-31 18:59:00
3:22 PM,59.0,55.4,88,29.51,7.0,South,13.8,25.3,0.01,Rain,Light Rain,190,2013-10-31 19:22:00
3:53 PM,59.0,57.0,93,29.48,5.0,South,11.5,19.6,0.02,Rain,Light Rain,190,2013-10-31 19:53:00
4:03 PM,59.0,57.2,94,29.48,4.0,South,12.7,19.6,0.02,Rain,Rain,190,2013-10-31 20:03:00
4:25 PM,59.0,57.2,94,29.46,2.5,South,11.5,23.0,0.06,Rain,Rain,180,2013-10-31 20:25:00
4:34 PM,59.0,57.2,94,29.46,3.0,South,10.4,-,0.07,Rain,Rain,180,2013-10-31 20:34:00
4:48 PM,59.0,57.2,94,29.44,5.0,South,13.8,21.9,0.08,Rain,Light Rain,190,2013-10-31 20:48:00
4:53 PM,59.0,57.0,93,29.44,5.0,South,10.4,24.2,0.09,Rain,Light Rain,180,2013-10-31 20:53:00
5:00 PM,59.0,57.2,94,29.44,4.0,South,12.7,19.6,0.00,Rain,Light Rain,180,2013-10-31 21:00:00
5:39 PM,59.0,55.4,88,29.41,2.0,South,11.5,19.6,0.01,Rain,Light Rain,180,2013-10-31 21:39:00
5:53 PM,59.0,55.9,90,29.39,2.0,South,12.7,20.7,0.02,Rain,Light Rain,180,2013-10-31 21:53:00
6:19 PM,57.2,55.4,94,29.38,2.0,South,13.8,21.9,0.01,Rain,Light Rain,180,2013-10-31 22:19:00
6:53 PM,57.9,55.9,93,29.34,2.0,South,11.5,-,0.02,Rain,Light Rain,180,2013-10-31 22:53:00
7:03 PM,57.2,55.4,94,29.34,4.0,South,12.7,19.6,0.00,Rain,Light Rain,180,2013-10-31 23:03:00
7:53 PM,57.9,57.0,97,29.30,5.0,South,10.4,18.4,0.00,,Overcast,190,2013-10-31 23:53:00
8:53 PM,60.1,57.0,90,29.25,10.0,SSW,13.8,23.0,0.01,Rain,Light Rain,200,2013-11-01 00:53:00
9:53 PM,60.1,57.9,93,29.20,6.0,South,12.7,-,0.06,Rain,Rain,190,2013-11-01 01:53:00
10:09 PM,60.8,57.2,88,29.19,10.0,South,11.5,20.7,0.02,Rain,Light Rain,190,2013-11-01 02:09:00
10:22 PM,60.8,57.2,88,29.18,9.0,South,11.5,20.7,0.03,Rain,Light Rain,190,2013-11-01 02:22:00
10:29 PM,60.8,57.2,88,29.18,10.0,SSW,11.5,20.7,0.04,Rain,Light Rain,200,2013-11-01 02:29:00
10:48 PM,60.8,57.2,88,29.17,10.0,SSW,10.4,19.6,0.04,Rain,Light Rain,200,2013-11-01 02:48:00
10:53 PM,60.1,57.9,93,29.16,10.0,South,8.1,17.3,0.04,Rain,Light Rain,190,2013-11-01 02:53:00
11:07 PM,60.8,57.2,88,29.16,10.0,South,9.2,-,0.00,,Overcast,180,2013-11-01 03:07:00
11:24 PM,60.8,57.2,88,29.16,10.0,South,11.5,-,0.00,Rain,Light Rain,190,2013-11-01 03:24:00
11:43 PM,60.8,57.2,88,29.17,9.0,South,13.8,20.7,0.01,Rain,Light Rain,190,2013-11-01 03:43:00
11:48 PM,60.8,57.2,88,29.16,8.0,South,15.0,20.7,0.01,Rain,Light Rain,190,2013-11-01 03:48:00
11:50 PM,60.8,57.2,88,29.16,8.0,South,11.5,20.7,0.01,Rain,Light Rain,190,2013-11-01 03:50:00
11:53 PM,60.1,57.9,93,29.15,9.0,South,11.5,20.7,0.02,Rain,Light Rain,190,2013-11-01 03:53:00
11:58 PM,60.8,57.2,88,29.15,10.0,South,12.7,-,0.00,Rain,Light Rain,190,2013-11-01 03:58:00